Torna al catalogo

YOUXI

AttivoScienzaSSO
NORAD 69097·PAYLOAD·🇨🇳 China
Questo nome del satellite non è ancora stato confermato da fonti ufficiali.

Lanciato May 15, 2026 da Jiuquan Satellite Launch Center

Loading…

Prossimi Passaggi (prossime 24 ore)

TLE

AggiornatoSource: Space-Track

Epoca: Sep 14, 2026, 13:46 UTC

1 69097U 26106A   26257.57412583  .00005601  00000-0  32912-3 0  9995
2 69097  97.5046 338.0876 0013098 211.7551 148.2891 15.12022416 18480

Traccia YOUXI in tempo reale con AllMySat

Download on the App Store